www.pogodaiklimat.ru

Погода и климат >> Архив погоды >> Австралия >> Marree Aero


ПОГОДА в Marree Aero

  • Прогноз погоды в Marree Aero
  • Монитор погоды в Marree Aero
  • Климат города

АРХИВ ПОГОДЫ в Marree Aero

Время (UTC), дата Ветер
(напр.,м/с)
 
Видим.   Явления Облачность Т
(С)
Тd
(С)
f
(%)
Тe
(С)
Тes
(С)
Комфортность P
(гПа)
Po
(гПа)
Тmin
(С)
Tmax
(С)
R
(мм)
R24
(мм)
S
(см)
04 19.04 В 5 н/о н/о +26.9 +17.1 55 +31 +31 душно 1019.5 1013.6
05 19.04 ЮВ 5 н/о н/о +26.5 +16.7 55 +30 +30 душно 1019.4 1013.5
06 19.04 ЮВ 6 н/о н/о +25.1 +18.3 66 +30 +30 душно 1019.5 1013.6
08 19.04 ЮВ 8 н/о н/о +23.8 +18.2 71 +28 +28 душно 1019.6 1013.7
07 19.04 ЮВ 7 н/о н/о +24.5 +18.4 69 +29 +29 душно 1019.5 1013.6
09 19.04 В 7 н/о н/о +23.4 +18.3 73 +29 +29 душно 1019.6 1013.7
10 19.04 В 6 н/о н/о +23.2 +17.7 71 +29 +29 душно 1020.1 1014.2
11 19.04 В 4 н/о н/о +23.2 +17.7 71 +29 +29 душно 1020.6 1014.7
12 19.04 В 4 н/о н/о +23.6 +16.9 66 +27 +27 жарко 1021.0 1015.1
14 19.04 В 5 н/о н/о +22.9 +18.0 74 +28 +28 душно 1020.4 1014.5
13 19.04 В 6 н/о н/о +23.7 +17.0 66 +27 +27 жарко 1020.7 1014.8
15 19.04 В 5 н/о н/о +22.0 +19.5 86 +28 +28 душно 1020.3 1014.4
16 19.04 СВ 4 н/о н/о +22.1 +18.5 80 +27 +27 душно 1021.1 1015.2
17 19.04 СВ 5 н/о н/о +20.9 +20.1 95 +26 +26 душно 1020.9 1015.0
18 19.04 СВ 6 н/о н/о +20.4 +19.7 96 +24 +24 комфорт 1020.7 1014.8
20 19.04 В 5 н/о н/о +20.4 +19.7 96 +24 +24 комфорт 1021.1 1015.2
19 19.04 СВ 5 н/о н/о +20.3 +19.8 97 +24 +24 комфорт 1020.9 1015.0
21 19.04 В 5 н/о н/о +20.6 +19.9 96 +25 +25 комфорт 1020.8 1014.9
22 19.04 ЮВ 4 н/о н/о +20.8 +20.0 95 +26 +26 душно 1021.3 1015.4
23 19.04 ЮВ 5 н/о н/о +21.2 +20.5 96 +26 +26 душно 1021.6 1015.7
00 20.04 ЮВ 4 н/о н/о +22.1 +21.3 95 +29 +29 очень
душно
1022.2 1016.2
02 20.04 В 5 н/о н/о +25.2 +18.2 65 +30 +30 душно 1020.8 1014.9
01 20.04 В 4 н/о н/о +23.3 +19.7 80 +30 +30 очень
душно
1021.6 1015.7
03 20.04 СВ 6 н/о н/о +27.0 +15.7 50 +30 +30 душно 1019.8 1013.9
04 20.04 СВ 5 н/о н/о +27.0 +15.4 49 +30 +30 душно 1019.0 1013.1
05 20.04 СВ 5 н/о н/о +27.0 +15.4 49 +30 +30 душно 1018.4 1012.5
06 20.04 СВ 6 н/о н/о +26.8 +16.4 53 +30 +30 душно 1018.1 1012.2
08 20.04 В 3 н/о н/о +26.3 +16.5 55 +30 +30 душно 1018.6 1012.7
07 20.04 В 3 н/о н/о +27.0 +16.6 53 +31 +31 душно 1018.4 1012.5
09 20.04 В 3 н/о н/о +25.0 +16.4 59 +28 +28 жарко 1018.9 1013.0
10 20.04 ЮВ 5 н/о н/о +24.1 +18.1 69 +28 +28 душно 1019.4 1013.5
11 20.04 ЮВ 3 н/о н/о +23.3 +17.7 71 +29 +29 душно 1019.7 1013.8
12 20.04 ЮВ 3 н/о н/о +22.5 +18.3 77 +28 +28 душно 1019.9 1014.0
14 20.04 С 4 н/о н/о +22.7 +18.7 78 +28 +28 душно 1019.2 1013.3
13 20.04 ЮВ 2 н/о н/о +22.3 +18.5 79 +28 +28 душно 1019.6 1013.7
15 20.04 СЗ 2 н/о н/о +21.6 +18.6 83 +26 +26 душно 1018.8 1012.9
16 20.04 штиль 0 н/о н/о +20.9 +20.1 95 +25 +25 комфорт 1018.7 1012.8
17 20.04 штиль 0 н/о н/о +20.7 +19.9 95 +25 +25 комфорт 1018.6 1012.7
18 20.04 В 1 н/о н/о +20.8 +20.0 95 +27 +27 душно 1017.8 1011.9
20 20.04 ЮЗ 3 н/о н/о +20.8 +20.1 96 +26 +26 душно 1019.4 1013.5
19 20.04 З 2 н/о н/о +20.4 +19.7 96 +25 +25 комфорт 1018.8 1012.9
21 20.04 ЮВ 3 н/о н/о +20.0 +19.5 97 +24 +24 комфорт 1019.2 1013.3
22 20.04 ЮВ 4 н/о н/о +20.2 +19.7 97 +24 +24 комфорт 1020.1 1014.2
23 20.04 Ю 2 н/о н/о +20.9 +20.2 96 +27 +27 душно 1020.9 1015.0
00 21.04 Ю 3 н/о н/о +21.6 +20.8 95 +27 +27 душно 1020.9 1015.0
02 21.04 Ю 5 н/о н/о +22.6 +20.1 86 +29 +29 очень
душно
1020.3 1014.4
01 21.04 Ю 4 н/о н/о +22.6 +20.1 86 +29 +29 очень
душно
1020.7 1014.8
03 21.04 ЮВ 3 н/о н/о +23.6 +19.5 78 +29 +29 душно 1019.5 1013.6
04 21.04 ЮВ 5 н/о н/о +24.1 +19.6 76 +29 +29 душно 1018.7 1012.8
05 21.04 ЮВ 5 н/о н/о +24.8 +18.3 67 +29 +29 душно 1018.4 1012.5
06 21.04 В 4 н/о н/о +25.5 +18.2 64 +30 +30 душно 1018.3 1012.4
08 21.04 штиль 0 н/о н/о +24.9 +18.4 67 +29 +29 душно 1019.0 1013.1
07 21.04 СВ 2 н/о н/о +25.1 +18.5 67 +30 +30 душно 1018.6 1012.7
09 21.04 С 1 н/о н/о +24.0 +19.5 76 +29 +29 душно 1019.7 1013.8
10 21.04 ЮЗ 3 н/о н/о +23.0 +21.3 90 +31 +31 очень
душно
1020.2 1014.3
11 21.04 ЮЗ 4 н/о н/о +22.1 +21.4 96 +29 +29 очень
душно
1020.9 1015.0
12 21.04 ЮЗ 5 н/о н/о +20.5 +19.8 96 +25 +25 комфорт 1021.5 1015.6
14 21.04 Ю 3 н/о н/о +20.2 +20.2 100 +25 +25 комфорт 1020.3 1014.4
13 21.04 В 4 н/о н/о +20.4 +20.1 98 +25 +25 комфорт 1021.1 1015.2
15 21.04 Ю 2 н/о н/о +20.0 +19.8 99 +24 +24 комфорт 1020.0 1014.1
16 21.04 Ю 2 н/о н/о +19.8 +19.6 99 +24 +24 комфорт 1019.7 1013.8
17 21.04 ЮВ 2 н/о н/о +19.9 +19.9 100 +24 +24 комфорт 1019.6 1013.7
18 21.04 СВ 3 н/о н/о +19.9 +19.9 100 +24 +24 комфорт 1019.6 1013.7
20 21.04 В 2 н/о н/о +19.2 +19.2 100 +22 +22 комфорт 1019.6 1013.7
19 21.04 СВ 3 н/о н/о +19.6 +19.6 100 +23 +23 комфорт 1019.5 1013.6
21 21.04 Ю 3 н/о н/о +18.7 +18.7 100 +20 +20 1019.8 1013.9
22 21.04 Ю 3 н/о н/о +19.4 +19.4 100 +22 +22 комфорт 1020.5 1014.6
23 21.04 Ю 2 н/о н/о +20.4 +20.4 100 +25 +25 комфорт 1021.1 1015.2
00 22.04 ЮВ 3 н/о н/о +21.9 +21.2 96 +28 +28 душно 1021.3 1015.4
02 22.04 ЮВ 3 н/о н/о +24.3 +18.0 68 +29 +29 душно 1020.5 1014.6
01 22.04 ЮВ 2 н/о н/о +22.8 +20.7 88 +30 +30 очень
душно
1021.3 1015.4
03 22.04 В 3 н/о н/о +24.7 +17.2 63 +29 +29 душно 1019.6 1013.7
04 22.04 ЮВ 4 н/о н/о +25.8 +17.2 59 +30 +30 душно 1018.7 1012.8
05 22.04 В 3 н/о н/о +26.8 +16.1 52 +30 +30 душно 1018.2 1012.3
06 22.04 В 2 н/о н/о +26.5 +15.5 51 +30 +30 душно 1018.0 1012.1
08 22.04 ЮЗ 6 н/о н/о +24.1 +17.8 68 +28 +28 душно 1018.4 1012.5
07 22.04 С 1 н/о н/о +26.6 +15.6 51 +30 +30 душно 1017.9 1012.0
09 22.04 ЮЗ 4 н/о н/о +21.7 +21.2 97 +28 +28 душно 1019.5 1013.6
10 22.04 Ю 3 н/о н/о +20.9 +20.4 97 +26 +26 душно 1019.9 1014.0
11 22.04 ЮВ 4 н/о н/о +20.3 +20.0 98 +24 +24 комфорт 1020.2 1014.3
12 22.04 ЮВ 4 н/о н/о +19.9 +19.7 99 +23 +23 комфорт 1020.6 1014.7
14 22.04 ЮВ 3 н/о н/о +19.1 +19.1 100 +21 +21 комфорт 1020.2 1014.3
13 22.04 ЮВ 3 н/о н/о +19.4 +19.2 99 +22 +22 комфорт 1020.3 1014.4
15 22.04 В 2 н/о н/о +18.6 +18.1 97 +20 +20 1020.1 1014.2
16 22.04 ЮВ 3 н/о н/о +18.4 +17.8 96 +19 +19 1019.8 1013.9
17 22.04 Ю 3 н/о н/о +17.2 +16.6 96 +17 +17 1019.6 1013.7
18 22.04 ЮВ 3 н/о н/о +17.3 +16.8 97 +17 +17 1019.4 1013.5
20 22.04 Ю 3 н/о н/о +17.0 +16.7 98 +17 +17 1019.9 1014.0
19 22.04 ЮВ 3 н/о н/о +17.2 +16.7 97 +17 +17 1019.6 1013.7
21 22.04 ЮВ 4 н/о н/о +16.6 +16.3 98 +16 +16 1020.0 1014.1
22 22.04 ЮВ 4 н/о н/о +17.7 +17.2 97 +18 +18 1020.6 1014.7
23 22.04 ЮВ 4 н/о н/о +19.6 +18.8 95 +22 +22 комфорт 1021.1 1015.2
00 23.04 В 4 н/о н/о +22.6 +17.3 72 +27 +27 душно 1021.1 1015.2
02 23.04 С 2 н/о н/о +26.5 +14.9 49 +29 +29 жарко 1020.0 1014.1
01 23.04 СВ 4 н/о н/о +24.8 +16.0 58 +28 +28 жарко 1020.5 1014.6
03 23.04 С 2 н/о н/о +27.4 +14.4 45 +30 +30 жарко 1019.0 1013.1
04 23.04 З 3 н/о н/о +28.3 +13.4 40 +30 +30 жарко 1017.9 1012.0
05 23.04 СЗ 2 н/о н/о +29.2 +13.4 38 +31 +31 жарко 1017.5 1011.6
06 23.04 З 3 н/о н/о +29.4 +13.2 37 +31 +31 жарко 1017.4 1011.5
08 23.04 З 2 н/о н/о +27.7 +13.6 42 +30 +30 жарко 1017.5 1011.6
07 23.04 СЗ 3 н/о н/о +29.1 +12.9 37 +30 +30 жарко 1017.4 1011.5
09 23.04 Ю 2 н/о н/о +26.1 +14.9 50 +29 +29 жарко 1018.0 1012.1
10 23.04 Ю 3 н/о н/о +25.3 +15.9 56 +29 +29 душно 1018.5 1012.6
11 23.04 Ю 5 н/о н/о +24.0 +17.0 65 +28 +28 душно 1019.0 1013.1
12 23.04 ЮВ 5 н/о н/о +22.7 +17.6 73 +28 +28 душно 1019.1 1013.2
14 23.04 ЮВ 3 н/о н/о +19.7 +18.9 95 +23 +23 комфорт 1018.7 1012.8
13 23.04 ЮВ 4 н/о н/о +20.8 +18.7 88 +25 +25 комфорт 1018.9 1013.0
15 23.04 Ю 4 н/о н/о +19.2 +18.4 95 +21 +21 комфорт 1018.4 1012.5
16 23.04 Ю 4 н/о н/о +18.6 +17.8 95 +20 +20 1017.7 1011.8
17 23.04 Ю 3 н/о н/о +18.3 +17.7 96 +19 +19 1017.7 1011.8
18 23.04 Ю 4 н/о н/о +17.5 +16.9 96 +17 +17 1017.1 1011.2
20 23.04 ЮВ 4 н/о н/о +16.9 +16.4 97 +16 +16 1016.5 1010.6
19 23.04 ЮВ 4 н/о н/о +16.4 +15.9 97 +16 +16 1016.7 1010.8
21 23.04 ЮВ 4 н/о н/о +17.0 +16.5 97 +17 +17 1017.0 1011.1
22 23.04 ЮВ 4 н/о н/о +18.5 +17.9 96 +19 +19 1017.3 1011.4
23 23.04 В 3 н/о н/о +21.3 +17.9 81 +25 +25 комфорт 1017.7 1011.8
00 24.04 З 7 н/о н/о +21.6 +17.8 79 +26 +26 душно 1019.2 1013.3
02 24.04 Ю 5 н/о н/о +21.2 +20.5 96 +26 +26 душно 1016.7 1010.8
01 24.04 ЮЗ 4 н/о н/о +21.1 +20.3 95 +26 +26 душно 1018.1 1012.2
03 24.04 ЮВ 6 н/о н/о +21.4 +20.7 96 +27 +27 душно 1015.8 1009.9
04 24.04 ЮВ 5 н/о н/о +21.8 +20.8 94 +28 +28 душно 1015.4 1009.5
05 24.04 ЮВ 7 н/о н/о +21.5 +20.7 95 +27 +27 душно 1014.3 1008.4
06 24.04 ЮВ 6 н/о н/о +21.4 +20.9 97 +27 +27 душно 1013.8 1007.9
08 24.04 ЮВ 6 н/о н/о +19.8 +19.5 98 +23 +23 комфорт 1014.2 1008.3
07 24.04 Ю 6 н/о н/о +20.5 +20.0 97 +25 +25 комфорт 1014.3 1008.4
09 24.04 Ю 6 н/о н/о +19.8 +19.5 98 +23 +23 комфорт 1014.9 1009.0
10 24.04 Ю 6 н/о н/о +19.4 +19.1 98 +21 +21 комфорт 1015.4 1009.5
11 24.04 Ю 7 н/о н/о +18.9 +18.6 98 +20 +20 1015.3 1009.4
12 24.04 Ю 7 н/о н/о +18.1 +17.8 98 +18 +18 1015.7 1009.8
14 24.04 ЮВ 4 н/о н/о +17.9 +17.9 100 +18 +18 1016.2 1010.3
13 24.04 Ю 6 н/о н/о +18.1 +17.9 99 +18 +18 1016.6 1010.7
15 24.04 В 3 н/о н/о +17.7 +17.7 100 +18 +18 1015.0 1009.1
16 24.04 Ю 4 н/о н/о +17.8 +17.8 100 +18 +18 1015.0 1009.1
17 24.04 Ю 2 н/о н/о +17.7 +17.7 100 +18 +18 1014.6 1008.7
18 24.04 ЮЗ 3 н/о н/о +17.4 +17.4 100 +17 +17 1014.5 1008.6
20 24.04 Ю 4 н/о н/о +17.8 +17.8 100 +18 +18 1015.0 1009.1
19 24.04 ЮЗ 3 н/о н/о +16.9 +16.9 100 +17 +17 1014.7 1008.8
21 24.04 Ю 7 н/о н/о +17.4 +17.1 98 +16 +16 1015.5 1009.6
22 24.04 Ю 4 н/о н/о +17.5 +17.0 97 +17 +17 1016.3 1010.4
23 24.04 Ю 4 н/о н/о +18.3 +17.7 96 +19 +19 1016.8 1010.9
00 25.04 Ю 6 н/о н/о +18.6 +17.8 95 +19 +19 1017.2 1011.3
02 25.04 ЮЗ 7 н/о н/о +20.7 +15.9 74 +24 +24 комфорт 1016.7 1010.8
01 25.04 Ю 8 н/о н/о +19.7 +17.1 85 +22 +22 комфорт 1017.1 1011.2
03 25.04 ЮЗ 7 н/о н/о +21.1 +14.7 67 +24 +24 комфорт 1016.3 1010.4
04 25.04 ЮЗ 8 н/о н/о +22.1 +14.0 60 +25 +25 комфорт 1015.4 1009.5
05 25.04 ЮЗ 7 н/о н/о +21.7 +12.8 57 +24 +24 комфорт 1015.0 1009.1
06 25.04 ЮЗ 8 н/о н/о +22.7 +12.9 54 +26 +26 жарко 1014.9 1009.0
08 25.04 ЮЗ 9 н/о н/о +20.9 +12.1 57 +23 +23 комфорт 1015.7 1009.8
07 25.04 Ю 9 н/о н/о +22.4 +11.2 49 +25 +25 комфорт 1015.1 1009.2
09 25.04 ЮЗ 7 н/о н/о +20.0 +12.7 63 +21 +21 комфорт 1016.2 1010.3
10 25.04 ЮЗ 4 н/о н/о +18.3 +13.2 72 +18 +18 1017.1 1011.2
11 25.04 ЮЗ 4 н/о н/о +16.5 +15.0 91 +16 +16 1017.6 1011.7
12 25.04 ЮЗ 3 н/о н/о +15.0 +14.2 95 +14 +14 1017.9 1012.0
14 25.04 З 4 н/о н/о +15.9 +15.1 95 +15 +15 1018.7 1012.8
13 25.04 З 4 н/о н/о +14.6 +13.8 95 +13 +13 1018.2 1012.3
15 25.04 ЮЗ 6 н/о н/о +16.5 +12.8 79 +15 +15 1018.5 1012.6
16 25.04 ЮЗ 4 н/о н/о +14.5 +13.5 94 +13 +13 1018.6 1012.7
17 25.04 ЮЗ 5 н/о н/о +14.1 +12.3 89 +12 +12 1019.0 1013.1
18 25.04 ЮЗ 6 н/о н/о +13.7 +12.6 93 +11 +11 1018.7 1012.8
20 25.04 ЮЗ 6 н/о н/о +13.3 +12.5 95 +11 +11 1019.5 1013.6
19 25.04 ЮЗ 6 н/о н/о +13.4 +12.3 93 +11 +11 1019.3 1013.4
21 25.04 ЮЗ 6 н/о н/о +12.8 +12.0 95 +10 +10 1020.0 1014.1
22 25.04 ЮЗ 8 н/о н/о +13.8 +13.0 95 +11 +11 1020.7 1014.8
23 25.04 Ю 9 н/о н/о +15.7 +12.3 80 +14 +14 1021.1 1015.2
00 26.04 Ю 12 н/о н/о +16.7 +9.6 63 +15 +15 1021.6 1015.7
02 26.04 Ю 11 н/о н/о +18.4 +5.6 43 +17 +17 1021.7 1015.8
01 26.04 Ю 12 н/о н/о +17.5 +5.1 44 +16 +16 1022.2 1016.2
03 26.04 Ю 12 н/о н/о +18.9 +7.4 47 +18 +18 1021.3 1015.4

 

Местоположение метеостанции Marree Aero (Южная Австралия, Австралия): широта -29.66 долгота 138.06 высота над уровнем моря 51 м.

В архиве по умолчанию представлена погода в Marree Aero за последнюю неделю. Архивные данные за месяц целиком и за предыдущие месяцы, начиная с января 2011 года, Вы можете получить, выбрав интересующий диапазон дат из раскрывающегося списка и нажав кнопку "Ввод!".

Внимание! Время в таблицах - всемирное. Для получения местного времени необходимо прибавить поправку, которая в Marree Aero равна 9.5 ч.

Смотрите также архив погоды в соседних городах и на ближайших метеорологических станциях:

Погода в Leigh Creek Airport (Южная Австралия, Австралия) (110 км)
Погода в Olympic Dam Aerodrome (Южная Австралия, Австралия) (146 км)
Погода в Woomera Aerodrome (Южная Австралия, Австралия) (205 км)
Погода в Moomba Airport (Южная Австралия, Австралия) (271 км)
Погода в Port Augusta Arid Lands (Южная Австралия, Австралия) (320 км)
Погода в Coober Pedy Airport (Южная Австралия, Австралия) (332 км)
Погода в Oodnadatta Airport (Южная Австралия, Австралия) (346 км)
Погода в Yunta Airstrip (Южная Австралия, Австралия) (354 км)
Погода в Tarcoola Aero (Южная Австралия, Австралия) (355 км)
Погода в Whyalla Airport (Южная Австралия, Австралия) (383 км)

Пояснения к столбцам:

Ветер - указаны скорость ветра в м/с - средняя за 10 мин, порывы в срок и между сроками (в фигурных скобках) и направление, откуда дует ветер: С - северный, СВ - северо-восточный, В - восточный, ЮВ - юго-восточный, Ю - южный, ЮЗ - юго-западный, З - западный, СЗ - северо-западный.
Видимость - горизонтальная дальность видимости в метрах или километрах. При видимости от 1 до 10 км при отсутствии осадков обычно наблюдается дымка, при ухудшении видимости до 1 км и менее - туман. В сухую погоду видимость может ухудшаться дымом, пылью или мглою.
Явления - указаны атмосферные явления, наблюдавшиеся в срок или в последний час перед сроком; фигурными скобками обозначены явления, наблюдавшиеся между сроками (за 1-3 часа до срока); квадратными скобками обозначены град или гололедные отложения с указанием их диаметра в мм.
Облачность - указаны через наклонную черту общая и нижняя облачность в баллах и высота нижней границы облаков в метрах; квадратными скобками обозначены формы облаков: Ci - перистые, Cs - перисто-слоистые, Cc - перисто-кучевые, Ac - высококучевые, As - высокослоистые, Sc - слоисто-кучевые, Ns - слоисто-дождевые, Cu - кучевые, Cb - кучево-дождевые. Подробнее классификацию облаков см. в Атласе облаков (PDF).
T - Температура воздуха - температура, измеренная на высоте 2 м над землей.
Td - Температура точки росы - температура, при понижении до которой содержащийся в воздухе водяной пар достигнет насыщения.
f - Относительная влажность воздуха - влажноcть воздуха, измеренная на высоте 2 м над землей.
Te - Эффективная температура - температура, которую ощущает одетый по сезону человек в тени. Характеристика душности погоды. При расчете учитывается влияние влажности воздуха и скорости ветра на теплоощущения человека.
Tes - Эффективная температура на солнце - температура, которую ощущает человек, с поправкой на солнечный нагрев. Характеристика знойности погоды. Зависит от высоты солнца над горизонтом, облачности и скорости ветра. Ночью, в пасмурную погоду, а также при ветре 12 м/с и более поправка равна нулю.
P - Атмосферное давление - приведенное к уровню моря атмосферное давление.
Po - Атмосферное давление - измеренное на уровне метеостанции атмосферное давление.
Tmin - Минимальная температура - минимум температуры воздуха на высоте 2 м над землей.
Tmax - Максимальная температура - максимум температуры воздуха на высоте 2 м над землей.
R - Количество осадков - Количество выпавших осадков за период времени, мм. При наведении курсора мыши на число - период времени, за который выпало указанное количество осадков.
R24 - Количество осадков - Количество выпавших осадков за 24 часа, мм.
S - Снежный покров - Высота снежного покрова, см. При наведении курсора мыши на число - состояние снежного покрова и степень покрытия местности в баллах.